Simultaneous Nadir Overpasses (SNOs) Predictions

Prediction of SNOs between AQUA and GOES-15 Satellite Orbit:

Table of predicted SNOs for the next 14.0 days since TLE Epoch: 6/29/2018
Index Date Time (AQUA) AQUA Lat,Lon GOES-15 Lat,Lon Distance(km) Time Diff (sec)
1 06/30/2018 22:29:18 0.47,-133.41 0.11,-135.19 202.77 80
2 07/01/2018 10:50:34 0.58,-138.57 -0.13,-135.19 384.26 80
3 07/03/2018 10:38:22 -0.02,-135.61 -0.12,-135.24 42.42 80
4 07/05/2018 10:26:11 -0.68,-132.66 -0.12,-135.29 299.05 80
5 07/05/2018 22:47:36 -0.38,-137.86 0.14,-135.32 288.91 80
6 07/07/2018 22:35:24 0.24,-134.90 0.14,-135.36 51.67 80
7 07/09/2018 22:23:12 0.85,-131.94 0.14,-135.39 391.38 80
8 07/10/2018 10:44:28 0.21,-137.11 -0.17,-135.38 196.43 80
9 07/12/2018 10:32:17 -0.46,-134.16 -0.17,-135.40 142.05 80
10 07/12/2018 22:53:41 -0.63,-139.35 0.19,-135.42 446.80 80




NCC Satellite Simultaneous Nadir Overpasses (SNOs) Prediction Service
